TimeEST,TemperatureF,Dew PointF,Humidity,Sea Level PressureIn,VisibilityMPH,Wind Direction,Wind SpeedMPH,Gust SpeedMPH,PrecipitationIn,Events,Conditions,WindDirDegrees,DateUTC
12:56 AM,32.0,26.1,79,29.73,8.0,West,25.3,38.0,0.00,Snow,Light Snow,270,2012-12-21 05:56:00
1:56 AM,32.0,25.0,75,29.74,7.0,West,24.2,39.1,0.00,Snow,Light Snow,260,2012-12-21 06:56:00
2:56 AM,32.0,24.1,73,29.76,7.0,West,21.9,35.7,0.00,Snow,Light Snow,260,2012-12-21 07:56:00
3:56 AM,30.9,25.0,79,29.78,6.0,West,20.7,31.1,0.00,Snow,Light Snow,260,2012-12-21 08:56:00
4:56 AM,30.9,23.0,72,29.79,9.0,West,24.2,39.1,0.00,Snow,Light Snow,270,2012-12-21 09:56:00
5:56 AM,30.0,23.0,75,29.81,8.0,West,27.6,38.0,0.00,Snow,Light Snow,270,2012-12-21 10:56:00
6:56 AM,30.0,23.0,75,29.83,10.0,West,20.7,31.1,0.00,,Overcast,270,2012-12-21 11:56:00
7:56 AM,30.0,21.9,72,29.86,9.0,West,21.9,29.9,0.00,Snow,Light Snow,270,2012-12-21 12:56:00
8:56 AM,30.0,21.9,72,29.89,10.0,West,23.0,31.1,0.00,,Overcast,270,2012-12-21 13:56:00
9:56 AM,30.0,21.0,69,29.93,10.0,West,25.3,33.4,N/A,,Overcast,280,2012-12-21 14:56:00
10:56 AM,30.0,21.0,69,29.96,10.0,West,17.3,25.3,N/A,,Overcast,280,2012-12-21 15:56:00
11:56 AM,30.9,21.0,67,29.96,10.0,WNW,18.4,29.9,N/A,,Mostly Cloudy,290,2012-12-21 16:56:00
12:56 PM,32.0,21.0,64,29.97,10.0,WNW,19.6,28.8,N/A,,Mostly Cloudy,290,2012-12-21 17:56:00
1:56 PM,33.1,21.9,64,29.99,10.0,West,19.6,25.3,N/A,,Mostly Cloudy,280,2012-12-21 18:56:00
2:13 PM,33.8,21.2,60,29.98,10.0,WNW,19.6,28.8,N/A,,Scattered Clouds,300,2012-12-21 19:13:00
2:56 PM,35.1,21.9,59,29.99,10.0,WNW,20.7,31.1,N/A,,Scattered Clouds,300,2012-12-21 19:56:00
3:56 PM,36.0,21.9,57,30.02,10.0,West,21.9,29.9,N/A,,Scattered Clouds,280,2012-12-21 20:56:00
4:56 PM,35.1,21.9,59,30.05,10.0,West,20.7,28.8,N/A,,Scattered Clouds,280,2012-12-21 21:56:00
5:56 PM,33.1,21.0,61,30.08,10.0,WNW,16.1,24.2,N/A,,Partly Cloudy,290,2012-12-21 22:56:00
6:56 PM,32.0,19.9,61,30.11,10.0,WNW,17.3,23.0,N/A,,Partly Cloudy,290,2012-12-21 23:56:00
7:56 PM,32.0,19.0,59,30.14,10.0,NW,15.0,21.9,N/A,,Clear,310,2012-12-22 00:56:00
8:56 PM,30.0,19.0,64,30.17,10.0,NW,10.4,-,N/A,,Scattered Clouds,310,2012-12-22 01:56:00
9:56 PM,30.0,19.0,64,30.18,10.0,WNW,17.3,-,N/A,,Scattered Clouds,300,2012-12-22 02:56:00
10:56 PM,28.0,18.0,66,30.20,10.0,NW,9.2,18.4,N/A,,Scattered Clouds,320,2012-12-22 03:56:00
11:56 PM,27.0,18.0,69,30.22,10.0,NW,8.1,-,N/A,,Partly Cloudy,310,2012-12-22 04:56:00